GFSSGP_925_thetae_057.txt.gz
Theta_e
316 319 320 320 319 318 320 320 317 321 321 319 319 319 318 318 319 320 328 332 334 335 335 334 336 338 340 340 340 340 338 337 335 335 337 338 337 337 337 337 336 335 334 330 324 321 315 312 312
314 319 320 316 318 319 315 318 319 318 318 318 318 319 319 320 321 322 326 328 335 335 336 334 335 337 340 340 339 339 338 338 339 338 337 337 335 335 335 335 335 334 332 327 324 318 312 307 304
320 320 316 318 315 316 316 316 317 317 317 318 319 319 319 320 320 323 328 328 334 335 336 333 335 337 338 340 338 337 337 338 338 338 337 336 334 333 333 332 332 332 331 327 322 315 307 302 302
320 317 312 314 319 317 316 316 317 318 318 318 318 318 317 320 320 324 326 327 333 334 337 334 336 338 340 340 339 338 336 336 337 338 337 335 333 331 331 330 331 331 329 325 321 313 303 302 301
319 312 314 317 317 316 317 318 318 319 318 318 318 318 316 319 322 323 325 325 331 333 338 337 335 338 339 338 338 337 336 335 335 337 336 334 332 331 329 329 330 329 326 323 319 309 302 302 301
315 311 315 317 315 316 316 317 318 318 318 317 317 317 317 318 318 321 325 325 330 332 337 338 337 336 340 339 338 338 334 331 334 336 335 333 331 330 329 329 327 326 323 322 317 308 302 302 301
318 315 317 318 317 316 318 316 317 315 313 316 317 317 315 316 318 319 324 326 329 331 334 337 338 338 336 338 338 337 334 331 336 337 335 333 330 328 328 328 326 324 321 320 311 304 302 302 300
315 314 318 316 316 317 316 316 316 316 315 316 316 314 317 316 318 318 321 325 327 329 331 333 335 337 336 336 336 336 334 332 336 336 334 332 330 328 327 326 324 323 321 321 317 307 303 301 300
316 314 315 317 315 314 314 315 314 315 315 314 315 314 314 317 317 318 320 322 326 328 330 331 333 334 335 335 336 336 335 333 336 336 332 332 328 327 326 325 322 321 320 320 317 311 304 301 299
315 315 316 315 314 314 313 313 311 313 310 311 312 312 315 317 316 317 319 320 322 326 328 330 331 332 333 334 336 336 335 335 337 335 332 331 326 326 324 324 321 318 319 318 316 312 303 299 298
317 316 316 316 316 315 315 313 311 312 312 311 312 312 312 314 314 315 316 318 319 320 322 328 331 331 334 334 334 336 336 336 336 333 332 330 327 324 324 324 320 317 318 316 314 309 301 299 300
316 315 316 316 315 315 315 315 314 313 313 311 310 311 312 310 309 313 314 315 317 318 321 323 327 330 332 334 334 334 334 336 335 333 332 330 327 324 324 323 320 316 316 315 311 306 302 299 300
314 314 315 313 313 312 313 313 313 313 312 310 310 310 309 309 310 313 314 315 315 316 317 321 325 327 329 332 334 334 335 334 334 333 332 330 328 324 323 323 320 318 315 314 311 306 302 298 299
312 313 312 312 312 312 313 312 314 312 310 310 310 309 308 308 310 312 313 314 315 316 316 317 323 325 327 330 332 333 332 333 333 332 331 330 328 325 322 322 319 317 315 313 311 307 302 298 299
313 313 311 311 311 312 311 313 313 311 310 311 310 308 309 309 308 308 308 308 311 312 315 316 318 324 325 327 329 331 331 330 329 329 329 327 326 325 322 321 318 317 315 313 311 308 305 300 299
313 312 312 312 313 312 311 312 311 310 311 312 310 308 308 307 307 307 308 308 310 311 313 315 316 321 324 325 326 328 329 328 328 327 327 327 326 324 324 322 319 316 314 314 312 308 306 300 298
311 311 312 313 313 312 311 311 311 310 310 310 309 309 307 307 306 305 305 304 305 308 310 314 315 317 322 324 324 325 326 326 325 325 325 325 326 326 324 322 319 314 314 313 312 309 304 300 298
312 311 311 313 314 313 312 310 310 310 311 309 307 308 307 306 305 304 303 303 303 304 306 308 311 314 316 319 321 321 323 323 323 323 323 322 323 323 323 320 316 314 312 312 310 308 303 299 298
310 312 312 312 313 313 313 312 311 311 310 309 309 307 306 304 303 302 302 301 301 301 303 304 305 306 309 312 312 314 316 318 319 320 320 320 319 319 319 319 317 312 311 310 309 307 302 299 298
312 313 313 312 313 314 312 311 312 312 311 310 306 305 305 304 301 300 299 300 300 299 300 301 302 303 304 306 308 310 311 311 312 314 316 317 317 316 316 316 316 313 310 308 307 305 301 299 298
314 314 313 314 313 311 312 312 312 311 307 306 305 304 303 302 301 299 298 297 298 298 297 298 299 299 301 303 304 305 305 305 305 305 306 306 309 313 314 313 313 313 310 307 306 303 301 298 297
315 313 313 313 311 315 312 315 312 311 307 305 304 302 301 300 299 299 298 297 296 296 296 296 295 296 298 299 299 299 298 299 299 300 302 303 304 308 308 309 311 310 310 307 305 303 301 298 297
314 311 311 311 311 312 312 313 312 308 308 306 303 302 301 300 299 298 296 296 296 296 296 296 296 295 295 296 296 296 296 296 297 297 298 299 300 302 305 307 306 307 307 307 305 302 300 299 297
309 311 311 310 310 315 314 313 313 310 309 306 304 302 302 300 299 298 297 296 296 296 295 295 295 294 294 294 294 294 294 295 295 295 295 295 296 297 298 300 303 304 304 305 305 303 300 299 298
309 310 315 317 315 318 314 314 313 309 307 306 304 302 300 298 296 295 296 296 295 294 294 294 294 293 292 292 293 293 293 292 292 292 292 292 292 294 295 295 296 297 300 302 302 303 302 300 297
310 313 318 316 319 317 313 315 315 307 305 303 301 299 297 295 294 293 293 294 294 293 293 292 292 291 289 289 289 290 290 290 289 289 288 288 288 288 290 294 295 294 295 296 299 300 300 300 299
314 314 313 315 301 309 312 313 310 307 304 302 300 298 296 294 293 292 292 292 292 291 291 291 290 290 289 288 288 288 289 288 287 287 286 286 286 286 287 287 289 293 294 293 294 295 297 298 298
312 310 314 311 310 308 312 311 309 309 305 302 300 297 295 294 291 290 290 291 290 290 289 289 289 289 288 288 287 287 287 288 287 287 286 285 285 285 285 285 286 286 289 293 292 293 294 295 296
310 310 310 311 312 313 311 310 308 308 303 301 300 299 295 294 290 289 290 290 290 289 289 289 288 288 288 288 287 287 286 286 286 287 286 285 285 284 284 284 284 285 285 286 290 292 292 292 293
308 309 309 312 314 313 315 315 305 302 300 300 299 298 295 294 290 288 290 290 290 289 289 289 289 288 288 288 287 287 287 287 286 286 285 285 285 284 284 283 283 284 284 284 284 287 290 291 291

GFSSGP_925_thetae_063.txt.gz
Theta_e
314 317 318 318 318 312 317 318 315 320 320 317 316 316 316 315 316 315 324 329 331 332 334 336 341 343 342 342 342 340 339 333 331 335 338 338 340 339 338 336 335 334 332 328 324 320 313 310 312
318 319 319 310 314 313 313 312 318 317 317 315 316 316 317 318 317 321 326 329 331 332 334 335 339 343 342 341 341 340 339 333 333 337 340 340 339 337 335 335 334 334 332 328 324 318 311 305 305
319 317 313 312 309 313 313 314 315 315 314 316 317 316 316 318 319 320 324 329 332 334 334 334 338 341 342 343 342 340 338 335 335 337 339 339 336 335 334 334 333 332 331 327 323 317 308 302 302
318 314 307 311 317 315 314 314 314 315 316 316 315 316 314 316 317 322 326 329 329 334 334 333 336 340 342 342 341 339 338 337 335 336 337 338 335 333 332 331 331 330 329 326 322 315 305 302 301
315 307 312 314 315 313 313 314 314 316 315 316 315 316 314 317 323 325 326 327 330 334 334 333 335 337 342 341 340 339 338 337 338 337 337 336 333 332 331 329 329 329 328 325 322 315 304 302 301
313 307 311 314 315 313 311 314 315 314 313 315 316 315 315 317 321 324 326 326 331 333 334 334 334 336 340 341 339 338 337 337 337 338 337 337 333 331 329 328 328 328 327 324 321 315 304 302 301
314 310 312 314 314 313 314 309 314 313 312 315 314 316 313 314 317 321 324 325 328 333 334 334 334 335 336 339 340 338 337 336 336 336 337 336 333 331 329 327 327 326 325 323 321 313 303 302 301
310 310 315 313 313 315 313 309 312 313 313 310 313 312 313 314 316 319 323 324 327 331 333 334 335 334 336 338 339 339 338 336 335 335 335 336 332 331 328 326 325 325 325 323 321 315 304 302 300
309 309 310 313 313 313 311 312 311 309 312 310 311 312 311 314 317 318 322 324 327 328 331 334 335 335 335 336 338 338 337 336 334 332 333 336 334 331 329 327 323 323 323 322 321 316 307 303 300
309 306 308 310 313 314 313 312 312 311 309 310 310 309 313 315 316 316 318 319 324 326 328 332 334 335 336 336 337 338 338 337 336 332 334 336 333 331 330 328 324 322 321 320 320 317 310 303 300
312 310 310 313 312 313 313 312 311 312 312 309 310 310 309 311 312 313 313 314 317 320 325 327 331 333 335 336 336 337 337 337 333 333 333 332 332 331 330 328 325 322 322 319 319 318 312 306 299
316 313 313 314 313 313 313 312 313 311 311 310 308 306 306 303 303 304 304 305 306 311 316 323 328 332 333 333 333 334 336 335 331 333 332 332 331 329 329 328 327 324 321 320 317 317 315 309 302
312 312 312 312 310 310 310 311 312 310 308 307 305 303 303 303 304 304 304 305 306 307 311 316 322 328 331 332 331 331 334 335 334 334 331 332 331 330 329 328 327 326 323 321 318 316 315 312 307
310 311 310 309 310 310 311 310 310 310 309 306 304 304 303 302 302 301 302 302 305 307 309 311 316 323 328 331 331 331 332 333 334 335 332 332 330 330 329 328 326 325 324 322 320 317 315 313 310
311 311 309 309 310 310 308 311 310 309 308 304 304 303 302 301 300 300 299 300 302 306 313 316 314 318 326 330 332 332 333 333 330 331 332 332 331 330 329 326 324 323 323 321 319 317 315 314 312
310 309 311 312 310 311 310 313 312 309 309 303 303 301 301 300 299 299 299 299 301 305 310 317 320 322 325 328 329 330 331 331 330 330 330 329 328 328 327 327 326 325 322 320 319 317 315 314 311
308 312 310 310 311 311 310 311 310 309 308 303 303 301 301 299 298 297 297 298 300 302 306 311 317 320 322 324 326 325 323 323 322 323 324 325 326 326 326 326 325 323 322 319 318 317 315 313 312
312 310 309 309 311 311 312 310 308 307 309 303 301 300 299 298 297 296 295 296 298 300 303 307 310 313 314 316 317 317 316 314 315 316 317 319 320 321 323 323 323 321 319 318 316 315 314 312 310
311 309 309 308 308 311 311 310 308 304 302 303 301 300 298 297 296 295 295 295 296 298 300 301 304 306 310 312 310 306 303 304 304 304 305 309 313 315 315 317 318 317 316 315 313 312 311 310 309
309 310 309 309 310 311 311 311 305 304 303 302 300 299 298 297 296 295 294 294 294 295 296 297 298 301 302 304 303 301 301 299 299 299 300 301 303 306 310 311 311 311 310 310 311 310 309 308 307
310 311 312 312 311 309 310 310 308 304 302 300 299 298 297 296 295 294 294 293 293 294 294 295 296 296 297 299 300 299 299 298 298 296 296 296 298 299 301 303 305 307 308 308 307 304 304 304 305
314 311 312 312 311 312 309 313 308 304 302 300 299 297 296 295 294 294 293 293 292 291 292 293 293 293 293 294 294 293 291 290 290 290 290 291 292 292 293 296 297 299 300 301 302 303 303 300 300
314 310 310 310 309 310 310 311 309 304 305 302 299 297 296 294 293 292 293 292 292 290 289 289 289 289 289 289 289 288 288 287 286 287 287 287 287 287 287 288 289 291 294 295 296 297 298 301 300
309 308 308 307 308 312 310 311 312 306 306 302 300 297 296 294 293 292 292 291 291 290 289 288 288 287 287 288 287 287 287 287 287 286 286 286 286 286 286 286 286 286 287 287 290 293 294 294 296
307 307 312 314 313 316 310 311 311 306 304 302 300 297 295 293 292 291 290 290 290 289 289 288 288 287 287 287 287 287 286 286 286 286 286 286 286 286 286 285 285 285 285 285 285 285 287 291 293
307 308 313 314 315 315 310 315 311 302 301 300 298 295 293 292 291 290 290 290 289 289 288 288 288 288 288 288 288 288 287 287 287 287 287 287 286 286 286 286 286 286 285 285 285 285 285 285 285
309 310 310 310 295 308 311 309 304 301 300 298 296 294 292 292 291 290 290 289 289 288 288 288 288 288 288 288 288 288 288 287 287 287 287 287 286 286 285 285 285 285 285 285 285 285 285 284 284
309 308 313 309 309 310 311 310 311 303 301 297 296 294 292 291 289 288 289 289 289 288 288 288 288 288 288 287 287 287 287 287 287 287 287 286 286 286 285 284 284 284 284 284 283 283 284 284 284
309 309 310 310 309 307 306 308 305 305 302 298 296 295 293 290 288 287 288 289 289 289 288 288 288 287 287 287 287 287 287 287 286 286 286 285 285 285 284 283 282 282 282 282 282 282 282 282 282
307 309 309 315 312 308 309 311 301 304 301 299 297 296 292 290 287 287 289 289 289 289 288 288 288 287 287 287 286 286 286 286 286 286 285 285 284 282 281 281 281 282 282 282 282 281 281 281 281

GFSSGP_925_thetae_069.txt.gz
Theta_e
315 317 318 316 319 316 316 316 313 318 317 314 313 314 316 314 315 319 321 326 329 330 335 338 341 341 340 338 340 336 334 330 335 340 339 340 339 336 337 334 333 333 331 329 324 315 308 307 318
317 318 316 310 315 315 317 311 316 315 314 312 314 314 316 317 314 318 322 328 329 331 334 338 342 341 341 338 337 337 336 332 335 339 339 340 336 335 334 332 331 330 330 328 323 314 305 302 309
317 315 314 311 309 314 315 312 314 313 312 314 315 313 315 317 315 318 322 327 330 332 333 337 341 341 341 340 339 339 338 333 334 338 339 337 337 336 333 330 330 329 329 327 320 313 303 302 305
316 311 308 313 315 313 312 311 311 313 313 313 313 315 312 315 316 320 322 327 330 332 332 336 340 342 342 341 341 340 338 334 335 337 339 338 336 333 332 331 329 328 327 326 320 312 303 302 305
311 308 313 313 313 312 309 311 312 314 313 314 313 315 314 314 322 323 323 327 330 332 333 334 338 342 341 341 341 340 338 336 335 336 338 338 334 332 331 329 327 327 326 325 321 312 303 302 305
312 306 312 313 313 312 310 309 311 312 311 311 313 313 313 314 319 324 325 327 328 332 333 333 336 340 341 340 341 341 338 337 335 335 337 337 334 332 330 328 325 326 325 324 321 316 304 302 304
311 307 308 310 311 313 313 307 311 311 310 313 312 313 312 312 314 323 324 325 329 332 333 333 334 337 340 340 340 340 338 337 336 337 337 337 334 332 329 329 324 322 324 324 321 318 307 302 302
308 309 311 311 312 313 311 310 310 311 312 308 311 311 311 309 314 318 323 323 325 331 333 334 334 336 337 339 338 338 338 337 336 336 337 337 335 332 329 329 329 326 321 321 321 318 313 303 300
305 307 307 309 310 312 311 312 309 307 309 308 308 309 308 311 314 316 318 320 323 326 331 333 334 335 337 337 338 337 336 336 336 335 334 336 332 331 329 329 329 328 324 320 319 318 317 309 302
307 306 307 307 308 312 312 311 311 311 309 310 309 307 304 306 307 306 306 306 310 314 320 327 333 334 337 339 337 336 335 335 336 335 334 333 333 331 330 330 328 327 326 324 321 319 317 314 306
309 309 307 310 309 311 312 311 309 311 312 309 309 306 303 303 302 302 303 303 304 306 308 312 325 333 334 339 335 336 334 334 334 334 334 332 332 333 330 329 329 327 325 324 323 321 318 315 312
313 312 310 312 311 311 312 310 312 310 309 304 303 303 301 301 301 300 301 302 305 307 308 308 313 327 334 338 334 333 333 334 333 333 332 330 331 332 330 330 328 328 326 325 323 322 319 316 314
313 312 310 311 309 309 309 310 311 308 302 303 302 301 300 300 299 300 301 303 305 309 311 311 310 321 332 337 332 331 332 333 333 333 330 328 330 330 330 329 328 327 325 323 322 320 319 317 315
308 309 309 308 309 308 310 308 308 305 303 303 302 300 299 298 297 298 299 301 305 309 314 314 310 320 331 332 330 331 329 327 327 329 330 330 328 328 328 328 326 325 323 321 321 320 318 317 316
309 311 308 308 308 309 307 310 309 303 303 302 301 299 298 296 296 295 296 298 301 308 312 318 321 325 328 329 328 327 326 326 326 325 325 326 325 325 325 323 323 322 320 321 320 318 316 316 315
309 307 312 311 309 308 309 312 305 303 304 302 300 298 297 296 294 294 296 298 303 309 313 317 319 323 324 325 325 325 322 322 321 321 321 322 320 322 321 321 320 319 320 318 318 316 316 315 314
307 312 309 311 308 308 309 311 305 303 303 302 299 297 296 295 294 294 295 297 301 306 310 314 317 319 320 320 317 315 314 313 312 313 313 314 315 316 317 316 315 315 315 314 313 312 312 311 311
311 310 309 310 310 309 309 309 304 302 302 300 297 296 296 295 294 293 294 296 300 304 306 308 310 309 310 311 309 308 307 305 304 305 305 307 308 309 310 310 310 310 309 309 308 308 308 308 307
308 309 311 309 308 309 308 308 306 302 300 299 297 296 296 295 293 292 293 294 296 301 305 305 305 303 306 306 305 299 295 296 299 297 298 301 303 304 305 304 305 305 305 304 304 306 306 306 304
309 309 309 308 307 308 308 309 304 302 301 299 298 297 296 294 293 292 291 292 293 295 297 300 302 303 302 302 297 294 292 290 289 289 290 291 292 292 293 294 293 293 294 295 295 296 298 300 300
307 308 308 311 310 308 309 311 306 301 299 298 297 296 295 294 293 291 290 289 291 292 292 294 295 296 295 294 293 291 289 288 288 287 287 287 287 287 287 287 287 287 287 286 286 286 289 293 294
311 306 308 310 311 314 309 318 307 303 300 298 297 295 294 293 292 290 289 288 288 289 289 290 291 292 292 292 291 290 287 286 286 287 287 287 287 287 287 286 286 286 286 286 286 285 285 285 289
313 307 308 310 311 309 308 311 308 302 302 300 297 295 293 292 291 290 288 287 288 288 288 288 288 288 288 289 289 288 287 287 287 287 286 286 286 286 285 285 285 285 284 284 284 284 284 285 285
306 307 307 305 306 311 310 311 310 306 305 300 297 295 294 292 290 289 288 287 287 287 287 287 288 287 288 288 288 287 287 287 287 286 286 286 286 285 285 285 284 284 283 283 283 283 283 283 283
306 309 313 314 312 314 308 309 311 305 302 301 298 295 293 291 290 289 288 287 286 286 287 287 287 287 287 287 287 287 287 286 286 286 286 285 285 285 284 284 283 282 282 282 282 282 282 282 282
306 309 314 315 315 314 310 313 312 302 300 300 298 296 293 291 289 288 287 287 287 287 287 287 287 287 287 287 287 287 287 286 286 286 286 286 285 284 284 283 282 282 282 281 281 281 281 281 281
308 309 308 309 296 308 311 309 302 300 299 299 297 295 293 291 289 288 287 287 287 287 287 288 287 287 287 287 287 287 287 287 286 286 286 286 285 283 282 282 282 282 281 281 281 281 281 281 280
307 306 311 309 311 311 311 311 312 304 300 298 297 295 294 291 289 288 288 287 287 287 287 287 288 287 287 287 287 287 287 286 286 286 285 283 281 280 280 280 280 280 280 279 279 279 279 279 280
308 309 308 309 310 311 309 310 304 304 301 299 298 296 294 291 290 289 288 288 287 287 287 287 287 287 287 287 287 286 286 285 284 282 280 280 280 280 280 280 280 280 279 279 278 277 277 277 278
307 307 309 313 309 306 307 310 300 302 301 299 298 296 293 291 289 288 287 287 287 287 287 287 287 287 287 286 285 285 284 283 282 281 280 280 279 279 279 279 278 277 276 275 275 275 274 274 275

GFSSGP_925_thetae_072.txt.gz
Theta_e
315 317 318 322 324 323 323 323 320 322 321 320 318 319 321 319 320 323 323 329 331 336 340 342 342 342 338 341 338 334 331 332 337 340 340 340 336 335 332 331 332 332 331 327 318 310 304 312 324
317 317 319 321 322 320 321 320 320 319 319 318 318 319 320 321 319 322 326 328 333 335 340 343 342 342 339 341 338 335 332 333 338 338 338 337 337 336 332 330 329 330 330 327 322 310 306 306 316
317 315 323 322 320 318 319 319 319 318 317 319 320 319 320 321 321 322 323 330 334 335 340 343 342 342 340 338 337 336 334 334 337 338 338 337 338 334 331 330 329 329 329 327 322 312 307 307 314
318 319 318 320 319 318 318 317 317 318 318 318 318 320 318 317 321 323 323 331 335 336 340 341 342 341 341 339 338 339 337 334 336 337 337 338 335 332 331 329 329 327 327 326 320 308 303 305 312
315 319 321 321 320 317 316 317 317 319 319 319 318 318 319 318 322 326 326 333 335 337 339 341 341 341 342 341 340 339 338 335 336 337 338 336 333 332 330 327 328 327 326 324 318 308 302 304 309
320 317 320 320 319 317 316 316 317 318 316 317 317 317 318 316 320 326 331 333 335 337 338 340 341 340 341 341 340 339 338 335 335 336 338 337 333 331 329 325 323 325 325 323 319 312 303 302 307
319 316 316 319 319 318 318 314 317 316 315 317 316 316 317 315 315 324 325 330 334 336 338 339 341 341 340 340 339 340 338 336 335 336 337 336 333 331 329 328 329 325 322 321 319 316 305 302 303
317 317 317 317 317 319 316 315 315 315 316 313 315 316 316 314 315 321 324 325 330 335 336 338 338 338 341 340 338 338 337 337 335 336 336 335 334 331 328 329 329 327 323 321 319 318 314 303 300
312 315 315 315 317 317 315 316 313 312 314 314 312 313 309 308 312 316 319 319 322 322 329 335 337 336 339 340 338 336 336 336 336 335 335 334 332 330 329 328 328 327 325 324 323 319 316 311 303
316 316 314 312 315 316 316 316 316 315 315 315 313 310 308 308 310 312 312 313 312 311 314 321 333 334 338 336 339 335 336 336 337 336 334 334 332 331 329 330 328 327 325 323 323 322 319 314 309
315 315 312 312 313 314 316 315 315 315 316 315 315 311 308 308 308 309 309 308 308 308 309 310 320 333 337 335 335 336 334 334 334 334 333 332 332 331 332 328 328 326 325 324 322 321 320 317 313
316 315 314 315 314 314 316 315 315 315 314 309 309 307 307 308 307 306 307 307 307 308 309 309 310 324 336 333 333 334 333 334 332 333 334 331 330 331 329 329 328 326 325 324 321 320 320 317 316
316 315 314 315 314 314 312 314 314 313 309 307 306 306 306 306 305 305 305 306 307 308 310 312 311 319 332 332 333 332 331 331 330 332 331 330 330 330 328 327 325 325 324 322 320 320 318 317 316
314 313 314 313 313 312 313 313 312 308 308 307 306 306 304 303 302 304 304 306 306 308 309 313 314 326 330 332 330 327 327 327 328 329 328 329 328 327 325 324 323 322 321 320 320 318 317 316 315
312 315 315 315 313 313 312 313 313 309 308 308 306 305 303 301 301 301 301 304 305 306 312 316 322 326 328 328 326 325 324 325 324 323 325 325 324 323 322 321 321 319 319 319 318 318 317 316 315
314 314 319 315 312 311 313 320 310 308 309 309 306 304 303 301 300 300 300 303 302 307 311 316 321 323 324 323 320 321 318 318 318 319 320 320 320 318 319 319 316 316 317 316 316 314 313 311 310
314 320 317 317 312 312 313 318 310 308 308 309 306 304 303 302 300 299 299 301 300 306 307 310 315 316 315 315 314 312 313 312 311 311 312 312 313 312 312 312 310 310 309 309 308 308 308 308 307
321 317 315 317 314 312 314 316 310 308 309 308 305 303 302 301 299 297 298 299 299 303 304 306 306 307 309 309 308 307 306 303 303 302 304 305 305 306 304 302 301 301 302 301 303 306 306 305 304
317 316 317 315 313 313 316 316 314 308 307 306 304 303 302 300 297 296 297 298 299 299 301 302 304 302 302 302 300 297 293 293 291 291 291 293 294 294 295 295 296 295 296 295 296 299 301 302 299
314 316 317 314 311 312 315 314 314 308 308 306 304 303 301 299 298 296 296 297 297 297 297 298 300 299 298 297 295 293 291 290 289 289 289 289 290 290 290 289 289 289 290 289 290 290 294 295 296
314 315 316 316 313 312 313 317 313 305 303 302 301 300 300 299 297 295 294 295 295 295 295 295 295 294 293 292 291 291 290 290 289 289 288 287 287 287 287 287 287 287 288 288 288 288 289 291 291
316 312 313 314 315 321 313 324 317 310 306 302 301 300 299 297 295 293 293 293 292 292 292 292 292 291 291 291 291 291 290 289 288 288 287 287 287 286 286 286 286 286 286 286 286 286 287 288 289
315 312 313 313 316 316 316 320 320 307 308 304 301 300 298 296 294 293 291 290 289 290 290 290 289 289 289 290 290 290 289 288 288 288 287 287 286 285 285 284 284 284 284 284 284 285 285 286 287
310 311 311 311 314 320 319 318 323 312 311 306 302 300 298 295 293 291 290 289 289 289 289 289 289 289 289 289 289 289 289 288 288 288 288 287 286 285 284 283 283 283 283 283 283 283 284 284 285
312 315 323 321 319 324 311 317 320 312 308 306 302 300 297 295 293 291 289 289 288 289 289 289 289 288 288 288 288 288 288 288 287 287 287 287 286 285 283 283 283 282 282 282 282 283 283 283 283
313 318 325 329 322 320 310 316 316 306 304 305 302 300 297 295 293 291 290 289 288 288 288 288 288 288 288 287 287 287 287 287 287 286 286 285 284 283 282 282 282 282 282 282 282 283 283 282 283
312 313 314 313 306 318 318 315 308 304 304 303 301 299 297 295 293 292 290 289 288 288 288 288 288 287 287 287 287 287 287 287 286 286 285 284 283 282 282 282 282 282 282 281 281 281 282 282 282
311 312 316 315 322 324 318 316 318 308 306 303 301 299 297 295 293 292 290 289 288 288 288 288 287 287 287 287 287 286 286 286 286 285 284 283 282 282 281 280 280 279 279 279 279 279 279 279 279
311 312 312 314 316 323 322 318 311 312 308 304 302 300 298 296 294 292 290 289 288 288 287 288 288 287 287 286 286 286 286 286 285 284 282 281 280 279 278 278 278 278 278 278 277 277 277 277 277
312 313 313 319 316 314 316 319 305 307 307 304 303 300 298 296 294 293 291 289 288 288 288 288 287 287 286 286 286 286 286 284 282 280 279 279 278 278 278 278 277 277 276 276 276 275 275 275 276

GFSSGP_925_thetae_075.txt.gz
Theta_e
319 320 321 325 328 325 323 323 322 322 322 321 320 321 321 321 322 326 326 333 333 339 343 342 342 340 341 340 335 333 335 338 340 339 340 339 337 335 333 330 332 331 330 326 323 321 320 323 329
320 319 323 325 325 323 322 321 321 321 320 320 321 321 321 321 323 325 328 331 333 338 342 343 342 341 339 341 336 332 332 336 339 338 338 338 339 336 334 331 331 331 329 326 322 319 319 317 325
319 317 326 324 322 320 321 321 320 319 320 320 321 321 321 322 323 323 327 332 335 336 342 343 342 342 338 340 336 334 333 337 338 337 338 338 336 334 332 331 330 329 328 324 319 315 309 311 325
321 322 322 323 320 320 319 319 319 319 320 320 320 321 321 322 325 326 328 333 335 336 341 344 342 342 340 339 337 336 335 336 337 337 338 338 334 331 330 329 328 327 326 323 318 309 309 312 325
319 322 323 321 320 319 318 319 319 319 319 318 319 319 321 321 327 328 332 334 335 337 341 343 341 341 340 338 337 338 336 335 336 337 338 335 332 330 326 324 326 326 325 323 316 307 304 308 314
322 320 321 322 321 319 319 318 319 319 319 317 317 318 320 319 324 328 332 333 335 337 340 342 341 340 341 340 338 338 337 335 335 336 337 334 332 329 327 327 325 325 323 321 315 306 302 304 309
320 318 318 319 320 320 319 318 319 318 317 318 318 318 319 318 318 326 327 332 335 337 339 339 341 340 340 341 340 339 337 335 335 335 337 335 332 329 328 328 327 325 322 320 317 314 304 301 303
319 318 317 317 318 319 319 318 318 318 318 316 317 318 319 315 315 323 325 327 334 336 337 337 339 342 341 341 338 338 338 336 335 335 337 334 331 329 328 328 326 325 324 323 323 318 312 303 300
317 317 317 317 317 318 318 318 316 316 317 316 315 316 313 312 314 319 323 322 325 327 332 336 337 339 340 341 338 337 337 336 335 335 336 334 331 330 329 328 327 325 324 323 323 322 319 312 306
318 318 317 315 316 317 318 318 318 317 317 316 315 314 312 313 314 316 317 318 317 316 316 318 333 337 336 338 339 338 338 337 337 336 335 333 332 332 329 329 328 326 324 323 322 321 320 317 313
318 317 315 314 315 317 318 317 317 317 317 317 316 316 312 312 312 313 313 313 312 312 313 313 316 332 334 337 337 337 337 336 335 335 335 333 332 330 330 328 327 325 325 323 322 321 320 319 315
317 316 315 316 315 316 317 317 317 316 317 313 313 312 312 312 311 311 311 312 312 313 314 314 314 318 332 333 336 336 335 335 336 334 333 332 331 330 328 327 326 325 325 322 321 320 319 318 316
316 317 316 317 316 316 316 316 316 316 313 311 310 310 311 310 310 310 310 311 312 313 314 315 317 317 331 334 334 333 332 331 331 331 331 330 330 328 326 326 324 324 322 320 320 318 318 318 316
316 316 316 316 316 315 315 316 314 314 312 311 310 310 309 307 307 309 309 310 312 311 313 317 314 326 331 332 331 329 329 328 329 328 328 328 327 326 325 323 322 321 320 320 318 316 316 317 316
315 316 318 318 317 316 315 316 315 313 312 311 310 309 307 306 306 306 307 310 308 309 312 317 322 325 328 327 327 325 325 325 325 324 324 324 323 321 321 319 320 319 319 318 317 315 315 313 313
317 317 321 319 316 315 315 321 316 312 312 313 311 310 308 306 305 305 307 307 304 307 310 315 317 321 321 321 321 321 320 321 320 319 319 319 319 319 317 316 313 313 312 310 310 310 311 311 310
318 321 321 321 316 315 316 321 314 311 312 313 312 310 308 306 305 304 306 303 302 304 306 308 310 312 313 315 315 313 311 309 307 309 309 309 310 310 311 309 306 307 305 305 308 309 309 307 305
321 322 320 320 318 315 317 318 315 312 312 313 313 310 308 306 304 302 305 301 301 302 303 305 304 304 305 309 307 302 304 302 301 299 300 301 300 300 300 299 298 298 297 296 298 303 302 300 298
320 320 321 320 317 316 318 319 319 314 312 314 312 310 308 306 302 302 304 301 300 300 301 302 301 300 300 299 298 297 295 294 293 292 292 292 292 293 293 292 293 292 291 291 292 293 295 294 296
319 319 320 320 318 314 317 319 318 317 313 313 312 310 307 304 303 302 303 300 299 299 299 300 300 301 299 298 296 295 294 292 291 290 290 290 290 290 290 290 290 290 290 289 289 290 291 293 292
318 319 319 319 318 315 316 319 319 318 313 309 308 308 305 304 302 302 303 300 299 298 298 299 298 297 296 295 293 292 292 292 291 290 289 289 288 288 288 288 288 288 288 288 288 288 289 290 290
318 318 317 317 317 320 318 323 322 321 311 308 307 305 304 303 301 300 300 300 298 297 296 296 296 295 295 295 295 294 293 291 290 289 289 288 288 287 287 286 287 286 286 286 286 287 287 288 289
318 315 315 316 318 320 321 321 321 318 314 311 307 305 303 301 300 299 298 296 295 295 295 293 293 292 293 293 292 292 291 290 290 289 289 288 287 286 285 285 285 285 285 285 285 286 286 286 287
314 315 315 315 318 324 322 323 324 320 316 314 308 305 302 300 298 296 294 293 293 292 292 292 292 291 291 291 291 291 291 290 290 290 289 288 287 286 285 285 284 284 284 284 285 285 285 285 285
315 317 323 326 323 324 318 324 323 318 312 313 307 304 301 299 297 294 292 292 292 292 291 291 291 290 291 291 290 290 290 290 289 289 288 288 286 285 284 284 284 284 284 284 284 284 284 284 284
316 318 326 332 329 325 312 319 321 310 309 309 306 304 301 298 296 293 292 291 291 291 291 291 290 290 290 289 289 289 289 289 288 288 287 286 285 284 284 283 283 283 282 282 282 282 282 283 282
318 320 319 321 313 320 320 317 312 308 307 307 305 303 301 297 295 293 292 291 291 291 291 290 290 289 289 289 289 288 288 288 288 287 285 284 283 282 282 282 282 282 282 281 281 281 281 280 280
317 316 318 322 328 329 324 322 321 311 309 307 305 303 301 298 295 294 292 291 291 291 290 290 290 289 289 288 288 288 288 287 286 285 284 283 283 283 282 282 281 281 280 280 279 279 279 279 279
314 316 317 319 321 326 327 322 316 316 311 307 306 303 301 298 296 294 292 291 290 290 290 290 289 289 288 288 288 287 287 285 284 284 283 283 282 282 281 280 279 279 278 278 278 278 277 277 277
316 317 317 321 321 319 321 323 310 311 312 308 306 303 301 298 296 294 292 291 291 290 290 289 289 289 288 288 288 287 285 284 284 283 283 282 281 279 279 278 278 278 277 277 276 276 276 276 276